Time,TemperatureF,DewpointF,PressureIn,WindDirection,WindDirectionDegrees,WindSpeedMPH,WindSpeedGustMPH,Humidity,HourlyPrecipIn,Conditions,Clouds,dailyrainin,SolarRadiationWatts/m^2,SoftwareType,DateUTC
2013-11-01 00:00:00,57.0,57.0,28.97,SW,229,0.0,3.0,100,0.19,,,0.36,0.0,meteohub,2013-11-01 04:00:00,
2013-11-01 00:01:00,57.0,57.0,28.97,SW,229,0.0,3.0,100,0.19,,,0.36,0.0,meteohub,2013-11-01 04:01:00,
2013-11-01 00:02:00,57.0,57.0,28.97,SW,229,0.0,3.0,100,0.19,,,0.36,0.0,meteohub,2013-11-01 04:02:00,
2013-11-01 00:07:00,56.8,56.8,28.96,SW,229,0.0,2.0,100,0.20,,,0.38,0.0,meteohub,2013-11-01 04:07:00,
2013-11-01 00:12:00,56.8,56.8,28.95,SW,229,0.0,2.0,100,0.17,,,0.38,0.0,meteohub,2013-11-01 04:12:00,
2013-11-01 00:17:00,56.8,56.8,28.94,SW,229,0.0,1.0,100,0.16,,,0.38,0.0,meteohub,2013-11-01 04:17:00,
2013-11-01 00:22:00,56.7,56.7,28.94,SW,229,0.0,1.0,100,0.15,,,0.39,0.0,meteohub,2013-11-01 04:22:00,
2013-11-01 00:27:00,56.7,56.7,28.94,SW,229,0.0,1.0,100,0.13,,,0.39,0.0,meteohub,2013-11-01 04:27:00,
2013-11-01 00:32:00,56.5,56.5,28.94,SW,229,0.0,1.0,100,0.11,,,0.39,0.0,meteohub,2013-11-01 04:32:00,
2013-11-01 00:37:00,56.5,56.5,28.93,SW,229,0.0,0.0,100,0.10,,,0.39,0.0,meteohub,2013-11-01 04:37:00,
2013-11-01 00:42:00,56.5,56.5,28.93,SW,229,0.0,0.0,100,0.09,,,0.39,0.0,meteohub,2013-11-01 04:42:00,
2013-11-01 00:47:00,56.3,56.3,28.92,SW,229,0.0,0.0,100,0.08,,,0.39,0.0,meteohub,2013-11-01 04:47:00,
2013-11-01 00:52:00,56.1,56.1,28.92,SW,229,0.0,1.0,100,0.07,,,0.40,0.0,meteohub,2013-11-01 04:52:00,
2013-11-01 00:57:00,56.1,56.1,28.92,SW,229,0.0,1.0,100,0.05,,,0.40,0.0,meteohub,2013-11-01 04:57:00,
2013-11-01 01:02:00,56.1,56.1,28.92,SW,229,0.0,1.0,100,0.03,,,0.40,0.0,meteohub,2013-11-01 05:02:00,
2013-11-01 01:07:00,55.9,55.9,28.92,SW,229,0.0,0.0,100,0.02,,,0.40,0.0,meteohub,2013-11-01 05:07:00,
2013-11-01 01:12:00,55.9,55.9,28.92,SW,229,0.0,0.0,100,0.02,,,0.40,0.0,meteohub,2013-11-01 05:12:00,
2013-11-01 01:17:00,55.9,55.9,28.92,SW,229,0.0,0.0,100,0.01,,,0.40,0.0,meteohub,2013-11-01 05:17:00,
2013-11-01 01:22:00,55.9,55.9,28.93,WSW,239,0.0,1.0,100,0.01,,,0.40,0.0,meteohub,2013-11-01 05:22:00,
2013-11-01 01:27:00,55.9,55.9,28.93,WSW,246,0.0,1.0,100,0.01,,,0.40,0.0,meteohub,2013-11-01 05:27:00,
2013-11-01 01:32:00,55.9,55.9,28.92,SW,227,0.0,1.0,100,0.01,,,0.40,0.0,meteohub,2013-11-01 05:32:00,
2013-11-01 01:37:00,55.9,55.9,28.92,SW,223,2.0,3.0,100,0.02,,,0.41,0.0,meteohub,2013-11-01 05:37:00,
2013-11-01 01:43:00,55.8,55.8,28.92,SSW,193,1.0,3.0,100,0.04,,,0.43,0.0,meteohub,2013-11-01 05:43:00,
2013-11-01 01:45:00,55.8,55.8,28.92,SSW,193,0.0,3.0,100,0.04,,,0.43,0.0,meteohub,2013-11-01 05:45:00,
2013-11-01 01:50:00,55.8,55.8,28.91,SSW,193,0.0,3.0,100,0.04,,,0.43,0.0,meteohub,2013-11-01 05:50:00,
2013-11-01 01:55:00,55.8,55.8,28.90,SW,229,0.0,3.0,100,0.05,,,0.45,0.0,meteohub,2013-11-01 05:55:00,
2013-11-01 02:00:00,55.6,55.6,28.89,SW,229,0.0,3.0,100,0.05,,,0.47,0.0,meteohub,2013-11-01 06:00:00,
2013-11-01 02:05:00,55.6,55.6,28.88,SW,229,0.0,3.0,100,0.07,,,0.47,0.0,meteohub,2013-11-01 06:05:00,
2013-11-01 02:10:00,55.4,55.4,28.88,SW,229,0.0,0.0,100,0.07,,,0.47,0.0,meteohub,2013-11-01 06:10:00,
2013-11-01 02:15:00,55.4,55.4,28.88,SW,229,0.0,0.0,100,0.07,,,0.47,0.0,meteohub,2013-11-01 06:15:00,
2013-11-01 02:20:00,55.2,55.2,28.87,SW,229,0.0,1.0,100,0.07,,,0.47,0.0,meteohub,2013-11-01 06:20:00,
2013-11-01 02:25:00,55.2,55.2,28.88,SW,225,1.0,2.0,100,0.08,,,0.48,0.0,meteohub,2013-11-01 06:25:00,
2013-11-01 02:30:00,55.2,55.2,28.88,SW,225,1.0,2.0,100,0.07,,,0.48,0.0,meteohub,2013-11-01 06:30:00,
2013-11-01 02:35:00,55.2,55.2,28.87,WNW,291,1.0,2.0,100,0.06,,,0.48,0.0,meteohub,2013-11-01 06:35:00,
2013-11-01 02:40:00,55.0,55.0,28.87,WNW,293,0.0,4.0,100,0.05,,,0.48,0.0,meteohub,2013-11-01 06:40:00,
2013-11-01 02:45:00,54.9,54.9,28.87,WNW,286,1.0,4.0,100,0.04,,,0.48,0.0,meteohub,2013-11-01 06:45:00,
2013-11-01 02:50:00,54.7,54.7,28.87,West,271,3.0,3.0,100,0.03,,,0.48,0.0,meteohub,2013-11-01 06:50:00,
2013-11-01 02:55:00,54.3,54.3,28.87,West,271,1.0,7.0,100,0.02,,,0.48,0.0,meteohub,2013-11-01 06:55:00,
2013-11-01 03:00:00,54.1,54.1,28.87,West,271,1.0,7.0,100,0.01,,,0.48,0.0,meteohub,2013-11-01 07:00:00,
2013-11-01 03:05:00,54.1,54.1,28.87,WNW,289,2.0,3.0,100,0.01,,,0.48,0.0,meteohub,2013-11-01 07:05:00,
2013-11-01 03:10:00,53.8,53.8,28.87,WNW,294,1.0,4.0,100,0.01,,,0.48,0.0,meteohub,2013-11-01 07:10:00,
2013-11-01 03:15:00,53.8,53.8,28.87,WNW,290,1.0,4.0,100,0.01,,,0.48,0.0,meteohub,2013-11-01 07:15:00,
2013-11-01 03:20:00,53.6,53.6,28.87,WNW,290,1.0,4.0,100,0.01,,,0.48,0.0,meteohub,2013-11-01 07:20:00,
2013-11-01 03:25:00,53.2,53.2,28.87,SW,223,4.0,4.0,100,0.00,,,0.48,0.0,meteohub,2013-11-01 07:25:00,
2013-11-01 03:30:00,53.1,53.1,28.87,ESE,111,4.0,6.0,100,0.00,,,0.48,0.0,meteohub,2013-11-01 07:30:00,
2013-11-01 03:35:00,52.5,52.2,28.87,WNW,294,1.0,8.0,99,0.00,,,0.48,0.0,meteohub,2013-11-01 07:35:00,
2013-11-01 03:40:00,52.3,52.3,28.87,SW,232,1.0,8.0,100,0.00,,,0.48,0.0,meteohub,2013-11-01 07:40:00,
2013-11-01 03:45:00,52.2,51.8,28.87,WSW,252,2.0,8.0,99,0.00,,,0.48,0.0,meteohub,2013-11-01 07:45:00,
2013-11-01 03:50:00,52.0,51.6,28.87,SSW,202,8.0,8.0,99,0.00,,,0.48,0.0,meteohub,2013-11-01 07:50:00,
2013-11-01 03:55:00,51.6,51.3,28.87,West,277,0.0,8.0,99,0.00,,,0.48,0.0,meteohub,2013-11-01 07:55:00,
2013-11-01 04:00:00,51.6,51.6,28.87,SW,223,2.0,8.0,100,0.00,,,0.48,0.0,meteohub,2013-11-01 08:00:00,
2013-11-01 04:05:00,51.6,51.6,28.87,NW,304,1.0,8.0,100,0.00,,,0.48,0.0,meteohub,2013-11-01 08:05:00,
2013-11-01 04:10:00,51.4,51.1,28.86,SW,229,5.0,6.0,99,0.00,,,0.48,0.0,meteohub,2013-11-01 08:10:00,
2013-11-01 04:15:00,51.3,50.9,28.87,WSW,238,3.0,9.0,99,0.00,,,0.48,0.0,meteohub,2013-11-01 08:15:00,
2013-11-01 04:20:00,51.3,51.3,28.87,WNW,296,1.0,9.0,100,0.00,,,0.48,0.0,meteohub,2013-11-01 08:20:00,
2013-11-01 04:25:00,51.3,51.3,28.87,WSW,254,1.0,9.0,100,0.00,,,0.48,0.0,meteohub,2013-11-01 08:25:00,
2013-11-01 04:30:00,51.1,51.1,28.87,SW,235,3.0,7.0,100,0.00,,,0.48,0.0,meteohub,2013-11-01 08:30:00,
2013-11-01 04:35:00,51.1,51.1,28.88,WNW,282,2.0,7.0,100,0.00,,,0.48,0.0,meteohub,2013-11-01 08:35:00,
2013-11-01 04:40:00,51.1,50.7,28.88,West,281,2.0,7.0,99,0.00,,,0.48,0.0,meteohub,2013-11-01 08:40:00,
2013-11-01 04:45:00,51.1,50.7,28.88,WNW,292,2.0,9.0,99,0.00,,,0.48,0.0,meteohub,2013-11-01 08:45:00,
2013-11-01 04:50:00,50.9,50.9,28.88,WNW,300,2.0,9.0,100,0.00,,,0.48,0.0,meteohub,2013-11-01 08:50:00,
2013-11-01 04:55:00,50.7,50.7,28.88,West,267,3.0,7.0,100,0.00,,,0.48,0.0,meteohub,2013-11-01 08:55:00,
2013-11-01 05:01:00,50.5,50.5,28.88,WNW,300,0.0,7.0,100,0.00,,,0.48,0.0,meteohub,2013-11-01 09:01:00,
2013-11-01 05:06:00,50.5,50.5,28.88,West,275,2.0,7.0,100,0.00,,,0.48,0.0,meteohub,2013-11-01 09:06:00,
2013-11-01 05:11:00,50.5,50.5,28.89,SW,235,2.0,5.0,100,0.00,,,0.48,0.0,meteohub,2013-11-01 09:11:00,
2013-11-01 05:16:00,50.4,50.4,28.89,WNW,291,2.0,4.0,100,0.00,,,0.48,0.0,meteohub,2013-11-01 09:16:00,
2013-11-01 05:21:00,50.4,50.0,28.89,NW,315,3.0,12.0,99,0.00,,,0.48,0.0,meteohub,2013-11-01 09:21:00,
2013-11-01 05:26:00,50.2,49.8,28.89,WNW,298,3.0,12.0,99,0.01,,,0.49,0.0,meteohub,2013-11-01 09:26:00,
2013-11-01 05:31:00,50.0,50.0,28.89,WNW,284,2.0,12.0,100,0.01,,,0.49,0.0,meteohub,2013-11-01 09:31:00,
2013-11-01 05:36:00,49.8,49.5,28.89,WNW,296,2.0,7.0,99,0.01,,,0.49,0.0,meteohub,2013-11-01 09:36:00,
2013-11-01 05:41:00,49.8,49.5,28.90,West,265,4.0,7.0,99,0.01,,,0.49,0.0,meteohub,2013-11-01 09:41:00,
2013-11-01 05:46:00,49.8,49.5,28.90,WNW,295,4.0,6.0,99,0.01,,,0.49,0.0,meteohub,2013-11-01 09:46:00,
2013-11-01 05:51:00,49.6,49.5,28.90,West,259,4.0,7.0,99,0.01,,,0.49,0.0,meteohub,2013-11-01 09:51:00,
2013-11-01 05:56:00,49.6,49.5,28.90,WNW,302,2.0,13.0,99,0.01,,,0.49,0.0,meteohub,2013-11-01 09:56:00,
2013-11-01 06:01:00,49.6,49.5,28.90,SSW,200,4.0,13.0,99,0.01,,,0.49,0.0,meteohub,2013-11-01 10:01:00,
2013-11-01 06:06:00,49.6,49.5,28.91,NNW,334,5.0,13.0,99,0.01,,,0.49,0.0,meteohub,2013-11-01 10:06:00,
2013-11-01 06:11:00,49.6,49.5,28.91,NW,306,3.0,7.0,99,0.01,,,0.49,0.0,meteohub,2013-11-01 10:11:00,
2013-11-01 06:16:00,49.5,49.3,28.92,WNW,296,2.0,9.0,99,0.01,,,0.49,0.0,meteohub,2013-11-01 10:16:00,
2013-11-01 06:21:00,49.5,49.3,28.92,WNW,287,5.0,9.0,99,0.00,,,0.49,0.0,meteohub,2013-11-01 10:21:00,
2013-11-01 06:26:00,49.5,48.9,28.93,NW,304,3.0,10.0,98,0.01,,,0.50,0.0,meteohub,2013-11-01 10:26:00,
2013-11-01 06:31:00,49.3,48.7,28.94,WNW,290,4.0,10.0,98,0.01,,,0.50,0.0,meteohub,2013-11-01 10:31:00,
2013-11-01 06:36:00,49.3,48.7,28.95,NW,311,4.0,10.0,98,0.01,,,0.50,0.0,meteohub,2013-11-01 10:36:00,
2013-11-01 06:41:00,49.1,48.6,28.95,NW,308,4.0,8.0,98,0.02,,,0.51,0.0,meteohub,2013-11-01 10:41:00,
2013-11-01 06:46:00,48.9,48.4,28.96,WNW,297,4.0,9.0,98,0.03,,,0.52,0.0,meteohub,2013-11-01 10:46:00,
2013-11-01 06:51:00,48.9,48.4,28.96,NNW,329,7.0,9.0,98,0.03,,,0.52,0.0,meteohub,2013-11-01 10:51:00,
2013-11-01 06:56:00,48.9,48.4,28.97,NW,307,5.0,12.0,98,0.04,,,0.53,0.0,meteohub,2013-11-01 10:56:00,
2013-11-01 07:01:00,48.7,48.2,28.98,WNW,290,4.0,12.0,98,0.05,,,0.54,0.0,meteohub,2013-11-01 11:01:00,
2013-11-01 07:06:00,48.7,48.2,28.99,SE,128,2.0,12.0,98,0.06,,,0.55,0.0,meteohub,2013-11-01 11:06:00,
2013-11-01 07:11:00,48.7,48.2,28.99,NW,306,6.0,11.0,98,0.07,,,0.56,0.0,meteohub,2013-11-01 11:11:00,
2013-11-01 07:16:00,48.7,48.2,29.00,WNW,282,4.0,12.0,98,0.08,,,0.57,0.0,meteohub,2013-11-01 11:16:00,
2013-11-01 07:21:00,48.7,48.2,29.01,WNW,296,7.0,12.0,98,0.08,,,0.57,0.0,meteohub,2013-11-01 11:21:00,
2013-11-01 07:26:00,48.7,48.2,29.01,NW,309,7.0,12.0,98,0.08,,,0.58,0.0,meteohub,2013-11-01 11:26:00,
2013-11-01 07:31:00,48.7,48.2,29.02,NW,304,4.0,12.0,98,0.08,,,0.58,0.0,meteohub,2013-11-01 11:31:00,
2013-11-01 07:36:00,48.6,47.7,29.03,WNW,295,3.0,12.0,97,0.07,,,0.58,0.0,meteohub,2013-11-01 11:36:00,
2013-11-01 07:41:00,48.6,48.0,29.04,NW,305,3.0,12.0,98,0.08,,,0.59,0.0,meteohub,2013-11-01 11:41:00,
2013-11-01 07:46:00,48.6,47.7,29.05,WNW,289,5.0,11.0,97,0.08,,,0.60,0.0,meteohub,2013-11-01 11:46:00,
2013-11-01 07:51:00,48.6,48.0,29.05,WNW,291,6.0,11.0,98,0.08,,,0.60,0.0,meteohub,2013-11-01 11:51:00,
2013-11-01 07:56:00,48.6,48.0,29.06,WNW,291,4.0,9.0,98,0.08,,,0.61,0.0,meteohub,2013-11-01 11:56:00,
2013-11-01 08:01:00,48.7,48.2,29.07,WNW,296,6.0,8.0,98,0.08,,,0.62,0.0,meteohub,2013-11-01 12:01:00,
2013-11-01 08:06:00,48.7,48.2,29.08,NW,311,5.0,8.0,98,0.07,,,0.62,0.0,meteohub,2013-11-01 12:06:00,
2013-11-01 08:11:00,48.6,48.0,29.08,WNW,292,3.0,9.0,98,0.06,,,0.62,0.0,meteohub,2013-11-01 12:11:00,
2013-11-01 08:16:00,48.6,48.0,29.09,NW,311,3.0,9.0,98,0.06,,,0.63,0.0,meteohub,2013-11-01 12:16:00,
2013-11-01 08:21:00,48.6,48.0,29.10,NW,317,4.0,9.0,98,0.06,,,0.63,0.0,meteohub,2013-11-01 12:21:00,
2013-11-01 08:26:00,48.4,47.8,29.10,WNW,291,4.0,6.0,98,0.06,,,0.64,0.0,meteohub,2013-11-01 12:26:00,
2013-11-01 08:31:00,48.4,47.8,29.11,WNW,293,5.0,8.0,98,0.07,,,0.65,0.0,meteohub,2013-11-01 12:31:00,
2013-11-01 08:36:00,48.2,47.7,29.12,West,281,6.0,8.0,98,0.06,,,0.65,0.0,meteohub,2013-11-01 12:36:00,
2013-11-01 08:41:00,48.0,47.5,29.13,WNW,297,2.0,8.0,98,0.05,,,0.65,0.0,meteohub,2013-11-01 12:41:00,
2013-11-01 08:46:00,48.0,47.5,29.14,WNW,296,3.0,7.0,98,0.06,,,0.66,0.0,meteohub,2013-11-01 12:46:00,
2013-11-01 08:51:00,47.8,47.3,29.14,WNW,300,3.0,7.0,98,0.05,,,0.66,5.0,meteohub,2013-11-01 12:51:00,
2013-11-01 08:56:00,47.8,47.3,29.15,WNW,283,3.0,9.0,98,0.05,,,0.66,11.0,meteohub,2013-11-01 12:56:00,
2013-11-01 09:01:00,47.8,47.3,29.15,WNW,297,3.0,9.0,98,0.04,,,0.66,16.0,meteohub,2013-11-01 13:01:00,
2013-11-01 09:06:00,47.7,47.1,29.16,NW,311,4.0,8.0,98,0.04,,,0.66,23.0,meteohub,2013-11-01 13:06:00,
2013-11-01 09:11:00,47.7,47.1,29.17,WNW,294,4.0,8.0,98,0.03,,,0.66,18.0,meteohub,2013-11-01 13:11:00,
2013-11-01 09:16:00,47.7,47.1,29.17,NW,313,5.0,8.0,98,0.03,,,0.66,11.0,meteohub,2013-11-01 13:16:00,
2013-11-01 09:21:00,47.5,46.9,29.18,West,271,4.0,8.0,98,0.03,,,0.66,11.0,meteohub,2013-11-01 13:21:00,
2013-11-01 09:26:00,47.5,46.9,29.18,WNW,296,2.0,8.0,98,0.02,,,0.66,11.0,meteohub,2013-11-01 13:26:00,
2013-11-01 09:31:00,47.3,46.8,29.18,WNW,302,3.0,8.0,98,0.01,,,0.66,9.0,meteohub,2013-11-01 13:31:00,
2013-11-01 09:36:00,47.1,46.6,29.19,NW,304,4.0,8.0,98,0.01,,,0.66,7.0,meteohub,2013-11-01 13:36:00,
2013-11-01 09:41:00,47.1,46.6,29.20,WNW,292,4.0,8.0,98,0.01,,,0.66,7.0,meteohub,2013-11-01 13:41:00,
2013-11-01 09:46:00,46.9,46.4,29.21,WNW,303,3.0,9.0,98,0.00,,,0.66,7.0,meteohub,2013-11-01 13:46:00,
2013-11-01 09:51:00,46.9,46.4,29.21,WNW,284,7.0,9.0,98,0.00,,,0.66,9.0,meteohub,2013-11-01 13:51:00,
2013-11-01 09:56:00,46.8,46.2,29.21,WNW,298,5.0,9.0,98,0.00,,,0.66,16.0,meteohub,2013-11-01 13:56:00,
2013-11-01 10:02:00,46.8,46.2,29.22,NW,310,1.0,8.0,98,0.00,,,0.66,12.0,meteohub,2013-11-01 14:02:00,
2013-11-01 10:07:00,46.8,46.2,29.22,WNW,298,3.0,8.0,98,0.00,,,0.66,14.0,meteohub,2013-11-01 14:07:00,
2013-11-01 10:12:00,46.6,46.0,29.22,West,275,4.0,7.0,98,0.00,,,0.66,14.0,meteohub,2013-11-01 14:12:00,
2013-11-01 10:17:00,46.4,45.9,29.23,WNW,289,4.0,7.0,98,0.00,,,0.66,16.0,meteohub,2013-11-01 14:17:00,
2013-11-01 10:22:00,46.2,45.7,29.23,NW,304,3.0,10.0,98,0.00,,,0.66,21.0,meteohub,2013-11-01 14:22:00,
2013-11-01 10:27:00,46.2,45.7,29.24,WSW,242,2.0,10.0,98,0.00,,,0.66,25.0,meteohub,2013-11-01 14:27:00,
2013-11-01 10:32:00,46.0,45.5,29.24,NW,306,3.0,7.0,98,0.00,,,0.66,37.0,meteohub,2013-11-01 14:32:00,
2013-11-01 10:37:00,46.0,45.3,29.24,WNW,286,1.0,7.0,97,0.00,,,0.66,40.0,meteohub,2013-11-01 14:37:00,
2013-11-01 10:42:00,46.0,45.3,29.25,WNW,295,4.0,6.0,97,0.00,,,0.66,25.0,meteohub,2013-11-01 14:42:00,
2013-11-01 10:47:00,46.0,45.3,29.25,NW,304,2.0,6.0,97,0.00,,,0.66,49.0,meteohub,2013-11-01 14:47:00,
2013-11-01 10:52:00,46.0,45.3,29.26,NNW,333,3.0,7.0,97,0.00,,,0.66,44.0,meteohub,2013-11-01 14:52:00,
2013-11-01 10:57:00,46.0,45.3,29.26,WNW,301,3.0,7.0,97,0.00,,,0.66,53.0,meteohub,2013-11-01 14:57:00,
2013-11-01 11:02:00,46.2,45.5,29.26,WNW,300,4.0,6.0,97,0.00,,,0.66,49.0,meteohub,2013-11-01 15:02:00,
2013-11-01 11:07:00,46.0,45.0,29.27,NW,306,1.0,6.0,96,0.00,,,0.66,32.0,meteohub,2013-11-01 15:07:00,
2013-11-01 11:12:00,46.0,45.0,29.27,WNW,294,4.0,5.0,96,0.00,,,0.66,39.0,meteohub,2013-11-01 15:12:00,
2013-11-01 11:17:00,46.0,45.0,29.28,WNW,294,5.0,5.0,96,0.00,,,0.66,42.0,meteohub,2013-11-01 15:17:00,
2013-11-01 11:22:00,46.0,45.0,29.28,WNW,297,3.0,5.0,96,0.00,,,0.66,47.0,meteohub,2013-11-01 15:22:00,
2013-11-01 11:27:00,46.0,45.0,29.29,WNW,287,3.0,6.0,96,0.00,,,0.66,44.0,meteohub,2013-11-01 15:27:00,
2013-11-01 11:32:00,46.0,45.0,29.29,WNW,291,2.0,7.0,96,0.00,,,0.66,42.0,meteohub,2013-11-01 15:32:00,
2013-11-01 11:37:00,46.0,45.0,29.29,NW,306,4.0,7.0,96,0.00,,,0.66,49.0,meteohub,2013-11-01 15:37:00,
2013-11-01 11:42:00,46.0,45.0,29.29,NW,310,1.0,7.0,96,0.00,,,0.66,44.0,meteohub,2013-11-01 15:42:00,
2013-11-01 11:47:00,46.0,45.0,29.29,NW,311,3.0,7.0,96,0.00,,,0.66,58.0,meteohub,2013-11-01 15:47:00,
2013-11-01 11:52:00,46.0,45.0,29.30,WNW,290,2.0,7.0,96,0.00,,,0.66,53.0,meteohub,2013-11-01 15:52:00,
2013-11-01 11:57:00,45.9,44.8,29.30,WNW,301,2.0,5.0,96,0.00,,,0.66,53.0,meteohub,2013-11-01 15:57:00,
2013-11-01 12:02:00,45.9,44.8,29.31,West,275,2.0,6.0,96,0.00,,,0.66,46.0,meteohub,2013-11-01 16:02:00,
2013-11-01 12:07:00,45.9,45.1,29.31,NW,305,1.0,6.0,97,0.00,,,0.66,51.0,meteohub,2013-11-01 16:07:00,
2013-11-01 12:12:00,45.9,45.1,29.31,NW,311,2.0,6.0,97,0.00,,,0.66,42.0,meteohub,2013-11-01 16:12:00,
2013-11-01 12:17:00,45.7,44.6,29.32,WNW,299,2.0,6.0,96,0.00,,,0.66,70.0,meteohub,2013-11-01 16:17:00,
2013-11-01 12:22:00,45.7,45.0,29.32,West,275,2.0,7.0,97,0.00,,,0.66,49.0,meteohub,2013-11-01 16:22:00,
2013-11-01 12:27:00,45.7,44.6,29.33,NW,309,2.0,7.0,96,0.00,,,0.66,67.0,meteohub,2013-11-01 16:27:00,
2013-11-01 12:32:00,45.7,44.6,29.33,WNW,296,2.0,7.0,96,0.00,,,0.66,65.0,meteohub,2013-11-01 16:32:00,
2013-11-01 12:37:00,45.7,44.6,29.33,WNW,301,3.0,7.0,96,0.00,,,0.66,83.0,meteohub,2013-11-01 16:37:00,
2013-11-01 12:42:00,45.7,44.6,29.34,WNW,296,2.0,7.0,96,0.00,,,0.66,114.0,meteohub,2013-11-01 16:42:00,
2013-11-01 12:47:00,45.7,44.6,29.34,NW,318,2.0,7.0,96,0.00,,,0.66,146.0,meteohub,2013-11-01 16:47:00,
2013-11-01 12:52:00,45.9,44.8,29.35,WNW,290,2.0,6.0,96,0.00,,,0.66,100.0,meteohub,2013-11-01 16:52:00,
2013-11-01 12:57:00,46.0,44.6,29.35,WNW,286,3.0,6.0,95,0.00,,,0.66,97.0,meteohub,2013-11-01 16:57:00,
2013-11-01 13:02:00,46.0,44.4,29.35,NW,318,2.0,4.0,94,0.00,,,0.66,69.0,meteohub,2013-11-01 17:02:00,
2013-11-01 13:07:00,45.9,44.2,29.35,WNW,294,3.0,4.0,94,0.00,,,0.66,53.0,meteohub,2013-11-01 17:07:00,
2013-11-01 13:12:00,45.9,44.2,29.36,WNW,303,2.0,4.0,94,0.00,,,0.66,42.0,meteohub,2013-11-01 17:12:00,
2013-11-01 13:17:00,45.9,44.2,29.36,NW,304,3.0,5.0,94,0.00,,,0.66,40.0,meteohub,2013-11-01 17:17:00,
2013-11-01 13:22:00,45.7,44.1,29.36,NW,315,2.0,5.0,94,0.00,,,0.66,35.0,meteohub,2013-11-01 17:22:00,
2013-11-01 13:27:00,45.7,44.1,29.36,West,259,3.0,5.0,94,0.00,,,0.66,47.0,meteohub,2013-11-01 17:27:00,
2013-11-01 13:32:00,45.5,43.5,29.37,WNW,282,2.0,6.0,93,0.00,,,0.66,44.0,meteohub,2013-11-01 17:32:00,
2013-11-01 13:37:00,45.5,43.9,29.37,NW,304,2.0,6.0,94,0.00,,,0.66,54.0,meteohub,2013-11-01 17:37:00,
2013-11-01 13:42:00,45.5,43.5,29.37,WNW,288,2.0,6.0,93,0.00,,,0.66,67.0,meteohub,2013-11-01 17:42:00,
2013-11-01 13:47:00,45.7,44.1,29.37,WNW,302,1.0,5.0,94,0.00,,,0.66,63.0,meteohub,2013-11-01 17:47:00,
2013-11-01 13:52:00,45.7,44.1,29.38,NW,309,1.0,4.0,94,0.00,,,0.66,47.0,meteohub,2013-11-01 17:52:00,
2013-11-01 13:57:00,45.7,43.7,29.38,NW,304,2.0,5.0,93,0.00,,,0.66,44.0,meteohub,2013-11-01 17:57:00,
2013-11-01 14:02:00,45.7,43.7,29.38,WNW,293,2.0,5.0,93,0.00,,,0.66,44.0,meteohub,2013-11-01 18:02:00,
2013-11-01 14:07:00,45.7,43.5,29.38,NW,304,2.0,5.0,92,0.00,,,0.66,47.0,meteohub,2013-11-01 18:07:00,
2013-11-01 14:12:00,45.7,43.5,29.38,NW,309,3.0,5.0,92,0.00,,,0.66,40.0,meteohub,2013-11-01 18:12:00,
2013-11-01 14:17:00,45.7,43.5,29.38,NW,306,2.0,5.0,92,0.00,,,0.66,40.0,meteohub,2013-11-01 18:17:00,
2013-11-01 14:22:00,45.7,43.5,29.39,WNW,288,3.0,5.0,92,0.00,,,0.66,47.0,meteohub,2013-11-01 18:22:00,
2013-11-01 14:27:00,45.7,43.5,29.39,WNW,291,2.0,4.0,92,0.00,,,0.66,53.0,meteohub,2013-11-01 18:27:00,
2013-11-01 14:32:00,45.7,43.2,29.39,WNW,295,2.0,4.0,91,0.00,,,0.66,40.0,meteohub,2013-11-01 18:32:00,
2013-11-01 14:37:00,45.7,43.5,29.40,WNW,295,2.0,4.0,92,0.00,,,0.66,30.0,meteohub,2013-11-01 18:37:00,
2013-11-01 14:42:00,45.7,43.5,29.40,NNW,327,2.0,4.0,92,0.00,,,0.66,30.0,meteohub,2013-11-01 18:42:00,
2013-11-01 14:47:00,45.5,43.3,29.40,NW,313,2.0,4.0,92,0.00,,,0.66,28.0,meteohub,2013-11-01 18:47:00,
2013-11-01 14:52:00,45.5,43.0,29.41,NW,306,2.0,4.0,91,0.00,,,0.66,30.0,meteohub,2013-11-01 18:52:00,
2013-11-01 14:57:00,45.5,43.0,29.41,NW,306,1.0,3.0,91,0.00,,,0.66,30.0,meteohub,2013-11-01 18:57:00,
2013-11-01 15:02:00,45.5,43.3,29.41,NW,306,1.0,3.0,92,0.00,,,0.66,35.0,meteohub,2013-11-01 19:02:00,
2013-11-01 15:07:00,45.5,43.0,29.41,WNW,303,0.0,2.0,91,0.00,,,0.66,32.0,meteohub,2013-11-01 19:07:00,
2013-11-01 15:12:00,45.3,42.8,29.42,NW,304,1.0,2.0,91,0.00,,,0.66,33.0,meteohub,2013-11-01 19:12:00,
2013-11-01 15:17:00,45.5,43.3,29.42,NW,304,0.0,2.0,92,0.00,,,0.66,30.0,meteohub,2013-11-01 19:17:00,
2013-11-01 15:22:00,45.3,42.8,29.42,NW,304,0.0,2.0,91,0.00,,,0.66,25.0,meteohub,2013-11-01 19:22:00,
2013-11-01 15:27:00,45.5,43.3,29.42,NW,304,1.0,2.0,92,0.00,,,0.66,23.0,meteohub,2013-11-01 19:27:00,
2013-11-01 15:32:00,45.3,43.2,29.43,WNW,303,1.0,2.0,92,0.00,,,0.66,21.0,meteohub,2013-11-01 19:32:00,
2013-11-01 15:37:00,45.3,43.2,29.43,NW,304,0.0,2.0,92,0.00,,,0.66,18.0,meteohub,2013-11-01 19:37:00,
2013-11-01 15:42:00,45.3,43.2,29.44,NW,304,0.0,2.0,92,0.00,,,0.66,16.0,meteohub,2013-11-01 19:42:00,
2013-11-01 15:47:00,45.3,43.3,29.44,NW,304,2.0,2.0,93,0.00,,,0.66,21.0,meteohub,2013-11-01 19:47:00,
2013-11-01 15:52:00,45.3,42.8,29.44,WNW,302,2.0,3.0,91,0.00,,,0.66,19.0,meteohub,2013-11-01 19:52:00,
2013-11-01 15:57:00,45.1,42.6,29.44,NNW,342,1.0,3.0,91,0.00,,,0.66,19.0,meteohub,2013-11-01 19:57:00,
2013-11-01 16:02:00,45.1,42.6,29.45,NNW,337,0.0,3.0,91,0.00,,,0.66,19.0,meteohub,2013-11-01 20:02:00,
2013-11-01 16:07:00,45.1,43.0,29.45,West,266,0.0,2.0,92,0.00,,,0.66,19.0,meteohub,2013-11-01 20:07:00,
2013-11-01 16:12:00,45.1,43.0,29.45,West,266,0.0,2.0,92,0.00,,,0.66,18.0,meteohub,2013-11-01 20:12:00,
2013-11-01 16:17:00,45.1,43.0,29.45,West,266,0.0,2.0,92,0.00,,,0.66,21.0,meteohub,2013-11-01 20:17:00,
2013-11-01 16:22:00,45.1,43.0,29.46,West,266,0.0,2.0,92,0.00,,,0.66,18.0,meteohub,2013-11-01 20:22:00,
2013-11-01 16:27:00,45.1,43.2,29.46,West,266,0.0,1.0,93,0.00,,,0.66,14.0,meteohub,2013-11-01 20:27:00,
2013-11-01 16:32:00,45.1,43.2,29.47,West,266,0.0,0.0,93,0.00,,,0.66,14.0,meteohub,2013-11-01 20:32:00,
2013-11-01 16:37:00,45.1,43.0,29.47,West,268,0.0,0.0,92,0.00,,,0.66,18.0,meteohub,2013-11-01 20:37:00,
2013-11-01 16:42:00,45.1,43.2,29.47,WSW,253,0.0,1.0,93,0.00,,,0.66,16.0,meteohub,2013-11-01 20:42:00,
2013-11-01 16:47:00,45.1,43.2,29.47,WSW,253,0.0,1.0,93,0.00,,,0.66,18.0,meteohub,2013-11-01 20:47:00,
2013-11-01 16:52:00,45.1,43.5,29.47,WSW,253,0.0,1.0,94,0.00,,,0.66,18.0,meteohub,2013-11-01 20:52:00,
2013-11-01 16:57:00,45.1,43.5,29.47,WSW,253,0.0,0.0,94,0.00,,,0.66,19.0,meteohub,2013-11-01 20:57:00,
2013-11-01 17:02:00,45.0,43.3,29.48,West,270,0.0,1.0,94,0.00,,,0.66,14.0,meteohub,2013-11-01 21:02:00,
2013-11-01 17:07:00,45.1,43.2,29.48,West,270,0.0,1.0,93,0.00,,,0.66,12.0,meteohub,2013-11-01 21:07:00,
2013-11-01 17:12:00,45.1,43.2,29.48,West,270,0.0,1.0,93,0.00,,,0.66,11.0,meteohub,2013-11-01 21:12:00,
2013-11-01 17:17:00,45.1,43.5,29.49,West,270,0.0,1.0,94,0.00,,,0.66,9.0,meteohub,2013-11-01 21:17:00,
2013-11-01 17:22:00,45.1,43.5,29.49,West,270,0.0,0.0,94,0.00,,,0.66,7.0,meteohub,2013-11-01 21:22:00,
2013-11-01 17:27:00,45.1,43.9,29.49,West,270,0.0,1.0,95,0.00,,,0.66,7.0,meteohub,2013-11-01 21:27:00,
2013-11-01 17:32:00,45.0,43.7,29.49,West,270,0.0,1.0,95,0.00,,,0.66,5.0,meteohub,2013-11-01 21:32:00,
2013-11-01 17:37:00,45.0,43.3,29.49,West,270,0.0,1.0,94,0.00,,,0.66,0.0,meteohub,2013-11-01 21:37:00,
2013-11-01 17:42:00,45.0,43.3,29.50,West,271,0.0,1.0,94,0.00,,,0.66,0.0,meteohub,2013-11-01 21:42:00,
2013-11-01 17:47:00,44.8,42.8,29.50,WNW,294,1.0,1.0,93,0.00,,,0.66,0.0,meteohub,2013-11-01 21:47:00,
2013-11-01 17:52:00,44.8,42.8,29.50,WNW,294,1.0,1.0,93,0.00,,,0.66,0.0,meteohub,2013-11-01 21:52:00,
2013-11-01 17:57:00,44.8,42.8,29.50,WNW,294,1.0,2.0,93,0.00,,,0.66,0.0,meteohub,2013-11-01 21:57:00,
2013-11-01 18:02:00,44.8,42.8,29.51,WNW,294,0.0,2.0,93,0.00,,,0.66,0.0,meteohub,2013-11-01 22:02:00,
2013-11-01 18:07:00,44.8,42.8,29.51,WNW,294,1.0,3.0,93,0.00,,,0.66,0.0,meteohub,2013-11-01 22:07:00,
2013-11-01 18:12:00,44.6,42.6,29.51,WNW,294,1.0,3.0,93,0.00,,,0.66,0.0,meteohub,2013-11-01 22:12:00,
2013-11-01 18:17:00,44.4,42.4,29.52,WNW,294,0.0,3.0,93,0.00,,,0.66,0.0,meteohub,2013-11-01 22:17:00,
2013-11-01 18:22:00,44.4,42.4,29.52,WNW,294,1.0,2.0,93,0.00,,,0.66,0.0,meteohub,2013-11-01 22:22:00,
2013-11-01 18:27:00,44.4,42.4,29.52,WNW,294,1.0,2.0,93,0.00,,,0.66,0.0,meteohub,2013-11-01 22:27:00,
2013-11-01 18:32:00,44.2,42.3,29.52,WNW,294,1.0,2.0,93,0.00,,,0.66,0.0,meteohub,2013-11-01 22:32:00,
2013-11-01 18:37:00,44.2,42.3,29.52,WNW,294,1.0,2.0,93,0.00,,,0.66,0.0,meteohub,2013-11-01 22:37:00,
2013-11-01 18:42:00,44.1,42.1,29.52,WNW,294,1.0,2.0,93,0.00,,,0.66,0.0,meteohub,2013-11-01 22:42:00,
2013-11-01 18:47:00,44.1,42.4,29.52,WNW,294,0.0,2.0,94,0.00,,,0.66,0.0,meteohub,2013-11-01 22:47:00,
2013-11-01 18:52:00,43.9,41.9,29.53,WNW,294,1.0,2.0,93,0.00,,,0.66,0.0,meteohub,2013-11-01 22:52:00,
2013-11-01 18:57:00,43.9,41.9,29.53,WNW,294,1.0,2.0,93,0.00,,,0.66,0.0,meteohub,2013-11-01 22:57:00,
2013-11-01 19:02:00,43.9,42.3,29.53,WNW,294,0.0,2.0,94,0.00,,,0.66,0.0,meteohub,2013-11-01 23:02:00,
2013-11-01 19:07:00,43.7,42.1,29.53,WNW,294,0.0,2.0,94,0.00,,,0.66,0.0,meteohub,2013-11-01 23:07:00,
2013-11-01 19:12:00,43.5,41.9,29.53,WNW,294,0.0,2.0,94,0.00,,,0.66,0.0,meteohub,2013-11-01 23:12:00,
2013-11-01 19:17:00,43.5,41.9,29.54,WNW,294,1.0,1.0,94,0.00,,,0.66,0.0,meteohub,2013-11-01 23:17:00,
2013-11-01 19:22:00,43.3,41.7,29.54,WNW,294,0.0,1.0,94,0.00,,,0.66,0.0,meteohub,2013-11-01 23:22:00,
2013-11-01 19:27:00,43.3,41.7,29.54,WNW,294,1.0,2.0,94,0.00,,,0.66,0.0,meteohub,2013-11-01 23:27:00,
2013-11-01 19:32:00,43.3,41.7,29.54,WNW,294,0.0,2.0,94,0.00,,,0.66,0.0,meteohub,2013-11-01 23:32:00,
2013-11-01 19:37:00,43.3,41.7,29.55,WNW,294,0.0,2.0,94,0.00,,,0.66,0.0,meteohub,2013-11-01 23:37:00,
2013-11-01 19:42:00,43.3,41.7,29.55,WNW,294,0.0,1.0,94,0.00,,,0.66,0.0,meteohub,2013-11-01 23:42:00,
2013-11-01 19:47:00,43.3,42.1,29.55,WNW,294,0.0,1.0,95,0.00,,,0.66,0.0,meteohub,2013-11-01 23:47:00,
2013-11-01 19:52:00,43.2,41.9,29.55,WNW,294,0.0,1.0,95,0.00,,,0.66,0.0,meteohub,2013-11-01 23:52:00,
2013-11-01 19:57:00,43.0,41.7,29.55,WNW,294,0.0,0.0,95,0.00,,,0.66,0.0,meteohub,2013-11-01 23:57:00,
2013-11-01 20:02:00,43.0,41.7,29.55,WNW,294,0.0,1.0,95,0.00,,,0.66,0.0,meteohub,2013-11-02 00:02:00,
2013-11-01 20:07:00,42.8,41.7,29.56,WNW,294,0.0,1.0,96,0.00,,,0.00,0.0,meteohub,2013-11-02 00:07:00,
2013-11-01 20:12:00,42.6,41.5,29.56,WNW,294,0.0,1.0,96,0.00,,,0.00,0.0,meteohub,2013-11-02 00:12:00,
2013-11-01 20:17:00,42.6,41.5,29.56,WNW,294,0.0,1.0,96,0.00,,,0.00,0.0,meteohub,2013-11-02 00:17:00,
2013-11-01 20:22:00,42.6,41.5,29.57,WNW,294,1.0,1.0,96,0.00,,,0.00,0.0,meteohub,2013-11-02 00:22:00,
2013-11-01 20:27:00,42.6,41.5,29.57,WNW,294,0.0,1.0,96,0.00,,,0.00,0.0,meteohub,2013-11-02 00:27:00,
2013-11-01 20:32:00,42.6,41.5,29.57,WNW,294,0.0,2.0,96,0.00,,,0.00,0.0,meteohub,2013-11-02 00:32:00,
2013-11-01 20:37:00,42.6,41.5,29.57,WNW,294,0.0,2.0,96,0.00,,,0.00,0.0,meteohub,2013-11-02 00:37:00,
2013-11-01 20:42:00,42.6,41.5,29.57,WNW,294,1.0,2.0,96,0.00,,,0.00,0.0,meteohub,2013-11-02 00:42:00,
2013-11-01 20:47:00,42.6,41.4,29.57,WNW,294,0.0,1.0,95,0.00,,,0.00,0.0,meteohub,2013-11-02 00:47:00,
2013-11-01 20:52:00,42.6,41.4,29.57,WNW,294,1.0,2.0,95,0.00,,,0.00,0.0,meteohub,2013-11-02 00:52:00,
2013-11-01 20:57:00,42.6,41.4,29.57,WNW,294,0.0,2.0,95,0.00,,,0.00,0.0,meteohub,2013-11-02 00:57:00,
2013-11-01 21:02:00,42.6,41.4,29.57,WNW,294,0.0,2.0,95,0.00,,,0.00,0.0,meteohub,2013-11-02 01:02:00,
2013-11-01 21:07:00,42.6,41.0,29.58,WNW,294,1.0,2.0,94,0.00,,,0.00,0.0,meteohub,2013-11-02 01:07:00,
2013-11-01 21:12:00,42.6,41.4,29.58,WNW,294,1.0,2.0,95,0.00,,,0.00,0.0,meteohub,2013-11-02 01:12:00,
2013-11-01 21:17:00,42.6,41.0,29.58,WNW,294,1.0,2.0,94,0.00,,,0.00,0.0,meteohub,2013-11-02 01:17:00,
2013-11-01 21:22:00,42.6,40.8,29.58,WNW,294,2.0,2.0,93,0.00,,,0.00,0.0,meteohub,2013-11-02 01:22:00,
2013-11-01 21:27:00,42.6,40.5,29.58,NW,315,1.0,3.0,92,0.00,,,0.00,0.0,meteohub,2013-11-02 01:27:00,
2013-11-01 21:32:00,42.6,40.5,29.58,NW,308,2.0,4.0,92,0.00,,,0.00,0.0,meteohub,2013-11-02 01:32:00,
2013-11-01 21:37:00,42.6,40.5,29.59,NW,308,0.0,4.0,92,0.00,,,0.00,0.0,meteohub,2013-11-02 01:37:00,
2013-11-01 21:42:00,42.4,40.3,29.59,NW,316,2.0,4.0,92,0.00,,,0.00,0.0,meteohub,2013-11-02 01:42:00,
2013-11-01 21:47:00,42.4,40.6,29.59,NW,311,2.0,4.0,93,0.00,,,0.00,0.0,meteohub,2013-11-02 01:47:00,
2013-11-01 21:52:00,42.3,40.6,29.59,WNW,303,2.0,4.0,94,0.00,,,0.00,0.0,meteohub,2013-11-02 01:52:00,
2013-11-01 21:57:00,42.1,40.8,29.59,NW,317,1.0,4.0,95,0.00,,,0.00,0.0,meteohub,2013-11-02 01:57:00,
2013-11-01 22:02:00,41.9,40.6,29.59,NW,317,1.0,4.0,95,0.00,,,0.00,0.0,meteohub,2013-11-02 02:02:00,
2013-11-01 22:07:00,41.7,40.5,29.59,NW,307,1.0,3.0,95,0.00,,,0.00,0.0,meteohub,2013-11-02 02:07:00,
2013-11-01 22:12:00,41.7,40.6,29.59,NW,307,0.0,2.0,96,0.00,,,0.00,0.0,meteohub,2013-11-02 02:12:00,
2013-11-01 22:17:00,41.5,40.5,29.60,NW,307,0.0,2.0,96,0.00,,,0.00,0.0,meteohub,2013-11-02 02:17:00,
2013-11-01 22:22:00,41.5,40.5,29.60,NW,307,0.0,2.0,96,0.00,,,0.00,0.0,meteohub,2013-11-02 02:22:00,
2013-11-01 22:27:00,41.5,40.5,29.60,NW,307,0.0,1.0,96,0.00,,,0.00,0.0,meteohub,2013-11-02 02:27:00,
2013-11-01 22:32:00,41.5,40.5,29.60,WNW,284,3.0,3.0,96,0.00,,,0.00,0.0,meteohub,2013-11-02 02:32:00,
2013-11-01 22:37:00,41.5,40.5,29.60,WNW,303,1.0,3.0,96,0.00,,,0.00,0.0,meteohub,2013-11-02 02:37:00,
2013-11-01 22:42:00,41.5,40.5,29.60,WNW,303,2.0,3.0,96,0.00,,,0.00,0.0,meteohub,2013-11-02 02:42:00,
2013-11-01 22:47:00,41.5,40.3,29.61,WNW,292,2.0,3.0,95,0.00,,,0.00,0.0,meteohub,2013-11-02 02:47:00,
2013-11-01 22:52:00,41.5,40.3,29.61,NW,309,1.0,3.0,95,0.00,,,0.00,0.0,meteohub,2013-11-02 02:52:00,
2013-11-01 22:57:00,41.5,39.9,29.61,WNW,303,1.0,3.0,94,0.00,,,0.00,0.0,meteohub,2013-11-02 02:57:00,
2013-11-01 23:02:00,41.5,39.9,29.61,NW,321,2.0,3.0,94,0.00,,,0.00,0.0,meteohub,2013-11-02 03:02:00,
2013-11-01 23:07:00,41.5,39.9,29.61,NNW,333,2.0,3.0,94,0.00,,,0.00,0.0,meteohub,2013-11-02 03:07:00,
2013-11-01 23:12:00,41.5,39.9,29.61,NW,319,1.0,3.0,94,0.00,,,0.00,0.0,meteohub,2013-11-02 03:12:00,
2013-11-01 23:17:00,41.5,39.9,29.62,NW,304,1.0,3.0,94,0.00,,,0.00,0.0,meteohub,2013-11-02 03:17:00,
2013-11-01 23:22:00,41.5,39.9,29.62,NW,304,0.0,4.0,94,0.00,,,0.00,0.0,meteohub,2013-11-02 03:22:00,
2013-11-01 23:27:00,41.5,39.9,29.62,NW,304,1.0,4.0,94,0.00,,,0.00,0.0,meteohub,2013-11-02 03:27:00,
2013-11-01 23:32:00,41.4,39.7,29.62,NW,304,0.0,2.0,94,0.00,,,0.00,0.0,meteohub,2013-11-02 03:32:00,
2013-11-01 23:37:00,41.2,39.6,29.62,NW,304,0.0,2.0,94,0.00,,,0.00,0.0,meteohub,2013-11-02 03:37:00,
2013-11-01 23:42:00,41.2,39.6,29.62,NW,304,1.0,2.0,94,0.00,,,0.00,0.0,meteohub,2013-11-02 03:42:00,
2013-11-01 23:47:00,41.2,39.6,29.62,NW,304,1.0,2.0,94,0.00,,,0.00,0.0,meteohub,2013-11-02 03:47:00,
2013-11-01 23:52:00,41.0,39.4,29.62,NW,304,0.0,2.0,94,0.00,,,0.00,0.0,meteohub,2013-11-02 03:52:00,
2013-11-01 23:57:00,40.8,39.6,29.62,NW,304,0.0,2.0,95,0.00,,,0.00,0.0,meteohub,2013-11-02 03:57:00,